Hourly Weather Roundup
Issued by NWS Central Illinois

Home | Current Version | Previous Version | Text Only | Print | Product List | Glossary On
Versions: 1 2 3 4 5 6 7 8 9 10 11 12 13 14 15 16 17 18 19 20 21 22 23 24 25 26 27 28 29 30 31 32 33 34 35 36 37 38 39 40 41 42 43 44 45 46 47 48 49 50
000
NZUS43 KILX 092110
HWRILX

AREA WEATHER ROUNDUP
NATIONAL WEATHER SERVICE, LINCOLN IL
300 PM CST FRI DEC 09 2016


CITY           SKY/WX    TMP DP  RH WIND       PRES   REMARKS
BLOOMINGTON    CLOUDY    24  15  68 W8        30.52F WCI  15
CHAMPAIGN      CLOUDY    25  12  58 NW9       30.54S WCI  15
DANVILLE       CLOUDY    26  16  64 W8        30.50S WCI  18
DECATUR        CLOUDY    23  14  68 W10       30.56S WCI  12
EFFINGHAM      CLOUDY    26  17  70 W6        30.59S WCI  19
FLORA          CLOUDY    29  16  57 W13       30.60R WCI  19
GALESBURG      CLOUDY    23  15  69 W9        30.54S WCI  13
JACKSONVILLE   CLOUDY    24  14  66 W6        30.58S WCI  17
LACON          CLOUDY    25  14  64 NW3       30.54S
LAWRENCEVILLE  CLOUDY    27  14  58 W7        30.58S WCI  19
LITCHFIELD     CLOUDY    23  15  69 W5        30.58S WCI  17
$$


CITY           SKY/WX    TMP DP  RH WIND       PRES   REMARKS
LINCOLN        CLOUDY    24  15  68 W5        30.55F WCI  18
MACOMB         MOSUNNY   23  13  66 W5        30.58S WCI  17
MATTOON        FLURRIES  24  16  71 W6        30.54S WCI  17
MT CARMEL AP   CLOUDY    27  16  62 W5        30.58R WCI  22
OLNEY-NOBLE AP CLOUDY    28  16  59 W6        30.59R WCI  22
PARIS          CLOUDY    26  16  64 NW7       30.54F WCI  19
PEORIA         PTSUNNY   25  12  58 W6        30.55S WCI  18
PONTIAC        CLOUDY    26  16  64 W9        30.55R WCI  17
RANTOUL        FLURRIES  27  18  69 W7        30.53S WCI  20
SPRINGFIELD    CLOUDY    25  14  63 W7        30.57S WCI  17
TAYLORVILLE    CLOUDY    23  15  70 CALM      30.58R
$$

...REGIONAL REPORTS...


CITY           SKY/WX    TMP DP  RH WIND       PRES   REMARKS
CHICAGO O`HARE PTSUNNY   25  13  60 W13       30.49S WCI  14
KANKAKEE       CLOUDY    25  14  63 W10       30.53S WCI  15
MOLINE         PTSUNNY   24  13  62 W8        30.55S WCI  15
MOUNT STERLING CLOUDY    22  13  68 W5        30.56S WCI  16
MOUNT VERNON   NOT AVBL
PITTSFIELD     CLOUDY    24  14  65 W6        30.58S WCI  17
QUINCY         MOSUNNY   23  13  65 NW3       30.56F
ROCKFORD       PTSUNNY   23  13  65 W10       30.52R WCI  12
$$


CITY           SKY/WX    TMP DP  RH WIND       PRES   REMARKS
BURLINGTON     CLOUDY    23  12  62 VRB5      30.55S WCI  17
CEDAR RAPIDS   MOSUNNY   19  13  77 NW7       30.53S WCI  10
DES MOINES     CLOUDY    23   9  55 W8        30.55R WCI  14
KIRKSVILLE     CLOUDY    26   7  44 NW6       30.55S WCI  19
OTTUMWA        CLOUDY    22   9  57 NW6       30.55S WCI  14
ST LOUIS       CLOUDY    30  11  45 W8        30.58F WCI  22
$$


CITY           SKY/WX    TMP DP  RH WIND       PRES   REMARKS
TERRE HAUTE    CLOUDY    27  13  55 W6        30.54F WCI  20
EVANSVILLE     PTSUNNY   29  14  53 W5        30.59S WCI  24
INDIANAPOLIS   FLURRIES  26  15  63 W8        30.51S WCI  18
LAFAYETTE      CLOUDY    25  15  66 NW9       30.52S WCI  15
MADISON        MOSUNNY   23   9  55 W5        30.48R WCI  17
MILWAUKEE      MOSUNNY   27   7  42 NW13      30.46S WCI  16
$$





USA.gov is the U.S. government's official web portal to all federal, state and local government web resources and services.